GLO7667 SBGR-SBVT

Flight info

Callsign GLO7667
Flight time 1h 24m
Altitude 39000
Route UREMI UZ42 IMDAB DCT SEGLI DCT TODET
Aircraft B738/M-SDE2E3FGHIRWXY/LB1

Departure

Time 2026-05-06 00:38
Airport São Paulo/Guarulhos–Governor André Franco Montoro International Airport (SBGR)

Arrival

Time 2026-05-06 02:02
Airport Eurico de Aguiar Salles International Airport (SBVT)
Time Latitude Longitude Altitude Speed Heading
2026-05-06 00:13 -23.42942 -46.48852 2441 ft 0 kts 275°
2026-05-06 00:24 -23.42943 -46.48850 2441 ft 1 kts 276°
2026-05-06 00:25 -23.42944 -46.48834 2441 ft 2 kts 275°
2026-05-06 00:25 -23.42946 -46.48818 2441 ft 2 kts 275°
2026-05-06 00:25 -23.42946 -46.48803 2442 ft 2 kts 253°
2026-05-06 00:25 -23.42939 -46.48788 2442 ft 2 kts 228°
2026-05-06 00:26 -23.42932 -46.48781 2442 ft 2 kts 210°
2026-05-06 00:26 -23.42921 -46.48777 2443 ft 0 kts 188°
2026-05-06 00:26 -23.42914 -46.48776 2443 ft 0 kts 185°
2026-05-06 00:26 -23.42913 -46.48776 2443 ft 0 kts 185°
2026-05-06 00:28 -23.42919 -46.48777 2443 ft 0 kts 185°
2026-05-06 00:33 -23.42927 -46.48777 2443 ft 4 kts 179°
2026-05-06 00:33 -23.42996 -46.48767 2441 ft 9 kts 182°
2026-05-06 00:34 -23.43047 -46.48771 2441 ft 11 kts 185°
2026-05-06 00:34 -23.43137 -46.48774 2441 ft 13 kts 158°
2026-05-06 00:34 -23.43169 -46.48683 2443 ft 13 kts 95°
2026-05-06 00:34 -23.43179 -46.48580 2443 ft 14 kts 95°
2026-05-06 00:35 -23.43189 -46.48468 2444 ft 12 kts 95°
2026-05-06 00:35 -23.43225 -46.48389 2445 ft 9 kts 161°
2026-05-06 00:35 -23.43284 -46.48370 2446 ft 4 kts 163°
2026-05-06 00:35 -23.43294 -46.48367 2446 ft 0 kts 163°
2026-05-06 00:36 -23.43319 -46.48359 2446 ft 7 kts 164°
2026-05-06 00:36 -23.43391 -46.48336 2448 ft 10 kts 162°
2026-05-06 00:36 -23.43416 -46.48295 2449 ft 7 kts 80°
2026-05-06 00:37 -23.43394 -46.48209 2449 ft 14 kts 73°
2026-05-06 00:37 -23.43355 -46.48067 2449 ft 55 kts 73°
2026-05-06 00:37 -23.43167 -46.47371 2450 ft 134 kts 73°
2026-05-06 00:37 -23.42841 -46.46178 2608 ft 185 kts 73°
2026-05-06 00:38 -23.42458 -46.44819 3393 ft 198 kts 73°
2026-05-06 00:38 -23.42019 -46.43293 4009 ft 225 kts 73°
2026-05-06 00:38 -23.41403 -46.41104 4926 ft 234 kts 73°
2026-05-06 00:38 -23.40956 -46.39372 5388 ft 244 kts 76°
2026-05-06 00:39 -23.40648 -46.38145 5523 ft 253 kts 75°
2026-05-06 00:39 -23.40156 -46.36263 5788 ft 263 kts 75°
2026-05-06 00:39 -23.39675 -46.34339 6315 ft 263 kts 78°
2026-05-06 00:39 -23.39467 -46.32425 6948 ft 246 kts 89°
2026-05-06 00:40 -23.39686 -46.30024 7389 ft 240 kts 103°
2026-05-06 00:40 -23.40246 -46.28223 7843 ft 262 kts 113°
2026-05-06 00:40 -23.40797 -46.27030 8201 ft 276 kts 119°
2026-05-06 00:40 -23.42296 -46.24860 9805 ft 266 kts 131°
2026-05-06 00:41 -23.43057 -46.23851 10560 ft 261 kts 124°
2026-05-06 00:41 -23.43916 -46.22197 11712 ft 254 kts 113°
2026-05-06 00:41 -23.44632 -46.19816 12905 ft 258 kts 104°
2026-05-06 00:41 -23.44900 -46.18496 13284 ft 271 kts 102°
2026-05-06 00:42 -23.45253 -46.16442 13898 ft 286 kts 101°
2026-05-06 00:42 -23.45607 -46.14276 14578 ft 299 kts 101°
2026-05-06 00:42 -23.46107 -46.11298 15699 ft 307 kts 101°
2026-05-06 00:42 -23.46366 -46.09783 16271 ft 310 kts 101°
2026-05-06 00:43 -23.46767 -46.07462 17091 ft 315 kts 101°
2026-05-06 00:43 -23.47312 -46.04323 18096 ft 325 kts 102°
2026-05-06 00:43 -23.47595 -46.02694 18418 ft 336 kts 102°
2026-05-06 00:43 -23.48039 -46.00135 18920 ft 352 kts 102°
2026-05-06 00:44 -23.48495 -45.97467 19415 ft 367 kts 101°
2026-05-06 00:44 -23.48807 -45.94647 19851 ft 384 kts 94°
2026-05-06 00:44 -23.48718 -45.91687 20325 ft 399 kts 84°
2026-05-06 00:44 -23.48006 -45.87666 21198 ft 411 kts 77°
2026-05-06 00:45 -23.47545 -45.85672 21713 ft 414 kts 76°
2026-05-06 00:45 -23.46529 -45.81624 22618 ft 422 kts 75°
2026-05-06 00:45 -23.45733 -45.78543 23354 ft 427 kts 75°
2026-05-06 00:45 -23.44927 -45.75419 23899 ft 436 kts 76°
2026-05-06 00:46 -23.44111 -45.72223 24607 ft 440 kts 76°
2026-05-06 00:46 -23.43567 -45.70071 25046 ft 443 kts 76°
2026-05-06 00:46 -23.42761 -45.66859 25627 ft 450 kts 76°
2026-05-06 00:46 -23.41937 -45.63554 26303 ft 454 kts 77°
2026-05-06 00:47 -23.41111 -45.60229 26975 ft 458 kts 77°
2026-05-06 00:47 -23.40276 -45.56858 27542 ft 463 kts 77°
2026-05-06 00:47 -23.39446 -45.53502 28101 ft 469 kts 77°
2026-05-06 00:47 -23.38595 -45.50037 28689 ft 473 kts 78°
2026-05-06 00:48 -23.37540 -45.45406 29450 ft 479 kts 79°
2026-05-06 00:48 -23.37034 -45.43050 29855 ft 480 kts 79°
2026-05-06 00:48 -23.36288 -45.39504 30400 ft 484 kts 80°
2026-05-06 00:48 -23.35554 -45.35975 31094 ft 484 kts 80°
2026-05-06 00:49 -23.34804 -45.32377 31855 ft 482 kts 80°
2026-05-06 00:49 -23.34055 -45.28802 32567 ft 481 kts 80°
2026-05-06 00:49 -23.33312 -45.25273 33223 ft 480 kts 80°
2026-05-06 00:49 -23.32554 -45.21698 33837 ft 480 kts 80°
2026-05-06 00:50 -23.31801 -45.18167 34448 ft 480 kts 80°
2026-05-06 00:50 -23.31045 -45.14632 35116 ft 479 kts 80°
2026-05-06 00:50 -23.30294 -45.11140 35728 ft 478 kts 80°
2026-05-06 00:50 -23.29541 -45.07641 36330 ft 477 kts 80°
2026-05-06 00:51 -23.28783 -45.04125 36878 ft 477 kts 80°
2026-05-06 00:51 -23.28029 -45.00639 37434 ft 476 kts 81°
2026-05-06 00:51 -23.27267 -44.97119 37964 ft 476 kts 81°
2026-05-06 00:51 -23.26507 -44.93606 38456 ft 476 kts 81°
2026-05-06 00:52 -23.25754 -44.90129 38898 ft 476 kts 81°
2026-05-06 00:52 -23.24996 -44.86639 39264 ft 478 kts 81°
2026-05-06 00:52 -23.23972 -44.81920 39269 ft 481 kts 81°
2026-05-06 00:53 -23.22698 -44.76078 39245 ft 475 kts 81°
2026-05-06 00:53 -23.21167 -44.69071 39234 ft 476 kts 81°
2026-05-06 00:54 -23.19476 -44.62119 39218 ft 479 kts 75°
2026-05-06 00:54 -23.17097 -44.55380 39215 ft 480 kts 70°
2026-05-06 00:55 -23.14414 -44.48735 39198 ft 480 kts 69°
2026-05-06 00:55 -23.11714 -44.42166 39198 ft 481 kts 69°
2026-05-06 00:56 -23.09003 -44.35508 39191 ft 481 kts 69°
2026-05-06 00:56 -23.06344 -44.28912 39183 ft 482 kts 69°
2026-05-06 00:57 -23.03662 -44.22230 39190 ft 482 kts 69°
2026-05-06 00:57 -23.01004 -44.15604 39176 ft 481 kts 69°
2026-05-06 00:58 -22.98342 -44.08974 39178 ft 480 kts 69°
2026-05-06 00:58 -22.95682 -44.02356 39183 ft 479 kts 69°
2026-05-06 00:59 -22.93013 -43.95726 39188 ft 479 kts 69°
2026-05-06 00:59 -22.90357 -43.89135 39184 ft 478 kts 69°
2026-05-06 01:00 -22.87698 -43.82547 39184 ft 479 kts 69°
2026-05-06 01:00 -22.85033 -43.75951 39183 ft 478 kts 69°
2026-05-06 01:01 -22.82364 -43.69356 39187 ft 480 kts 69°
2026-05-06 01:01 -22.79687 -43.62752 39181 ft 479 kts 69°
2026-05-06 01:02 -22.77020 -43.56184 39184 ft 477 kts 69°
2026-05-06 01:02 -22.74333 -43.49577 39176 ft 477 kts 69°
2026-05-06 01:03 -22.71665 -43.43024 39179 ft 476 kts 69°
2026-05-06 01:03 -22.69005 -43.36498 39180 ft 474 kts 69°
2026-05-06 01:04 -22.66354 -43.30004 39193 ft 477 kts 68°
2026-05-06 01:04 -22.63680 -43.23462 39199 ft 475 kts 68°
2026-05-06 01:05 -22.61009 -43.16940 39201 ft 476 kts 68°
2026-05-06 01:05 -22.58320 -43.10382 39204 ft 476 kts 68°
2026-05-06 01:06 -22.55640 -43.03853 39201 ft 474 kts 68°
2026-05-06 01:06 -22.52966 -42.97350 39199 ft 473 kts 68°
2026-05-06 01:07 -22.50296 -42.90863 39201 ft 473 kts 68°
2026-05-06 01:07 -22.47631 -42.84396 39202 ft 473 kts 68°
2026-05-06 01:08 -22.44500 -42.76810 39211 ft 473 kts 68°
2026-05-06 01:08 -22.42276 -42.71429 39226 ft 473 kts 68°
2026-05-06 01:09 -22.39609 -42.64985 39234 ft 472 kts 68°
2026-05-06 01:09 -22.36934 -42.58530 39241 ft 471 kts 68°
2026-05-06 01:10 -22.34246 -42.52052 39250 ft 472 kts 68°
2026-05-06 01:10 -22.31559 -42.45589 39262 ft 471 kts 68°
2026-05-06 01:11 -22.28609 -42.39307 39283 ft 472 kts 60°
2026-05-06 01:11 -22.24871 -42.33517 39310 ft 475 kts 54°
2026-05-06 01:12 -22.20797 -42.27880 39309 ft 474 kts 52°
2026-05-06 01:12 -22.16727 -42.22297 39292 ft 474 kts 53°
2026-05-06 01:13 -22.12711 -42.16713 39268 ft 473 kts 53°
2026-05-06 01:13 -22.08723 -42.11111 39252 ft 473 kts 53°
2026-05-06 01:14 -22.02753 -42.02683 39255 ft 471 kts 53°
2026-05-06 01:14 -21.98786 -41.97080 39256 ft 470 kts 53°
2026-05-06 01:15 -21.94818 -41.91479 39244 ft 469 kts 53°
2026-05-06 01:15 -21.90862 -41.85900 39241 ft 470 kts 53°
2026-05-06 01:16 -21.86892 -41.80306 39244 ft 471 kts 53°
2026-05-06 01:16 -21.82920 -41.74715 39255 ft 472 kts 53°
2026-05-06 01:17 -21.78955 -41.69140 39257 ft 471 kts 53°
2026-05-06 01:17 -21.74966 -41.63539 39248 ft 471 kts 53°
2026-05-06 01:18 -21.72312 -41.59825 38934 ft 466 kts 53°
2026-05-06 01:18 -21.71007 -41.58007 38513 ft 466 kts 53°
2026-05-06 01:18 -21.69015 -41.55236 37707 ft 468 kts 53°
2026-05-06 01:18 -21.67030 -41.52476 36958 ft 471 kts 53°
2026-05-06 01:19 -21.65039 -41.49701 36704 ft 468 kts 53°
2026-05-06 01:19 -21.63059 -41.46925 36691 ft 466 kts 54°
2026-05-06 01:19 -21.59079 -41.41330 36684 ft 471 kts 53°
2026-05-06 01:20 -21.55118 -41.35773 36680 ft 470 kts 53°
2026-05-06 01:20 -21.51120 -41.30222 36387 ft 472 kts 52°
2026-05-06 01:21 -21.48994 -41.27540 36108 ft 470 kts 47°
2026-05-06 01:21 -21.46670 -41.25093 35836 ft 468 kts 42°
2026-05-06 01:21 -21.44216 -41.22805 35565 ft 470 kts 40°
2026-05-06 01:21 -21.41675 -41.20579 35291 ft 471 kts 39°
2026-05-06 01:22 -21.39123 -41.18401 34998 ft 471 kts 38°
2026-05-06 01:22 -21.36565 -41.16231 34438 ft 469 kts 38°
2026-05-06 01:22 -21.33997 -41.14043 33772 ft 467 kts 39°
2026-05-06 01:22 -21.31463 -41.11869 33100 ft 466 kts 39°
2026-05-06 01:23 -21.28963 -41.09708 32617 ft 461 kts 39°
2026-05-06 01:23 -21.26505 -41.07573 32094 ft 457 kts 39°
2026-05-06 01:23 -21.24042 -41.05424 31553 ft 453 kts 40°
2026-05-06 01:23 -21.21629 -41.03315 31016 ft 449 kts 39°
2026-05-06 01:24 -21.19205 -41.01191 30473 ft 445 kts 40°
2026-05-06 01:24 -21.16845 -40.99121 29998 ft 440 kts 40°
2026-05-06 01:24 -21.14467 -40.97035 29733 ft 440 kts 40°
2026-05-06 01:24 -21.12079 -40.94940 29437 ft 443 kts 40°
2026-05-06 01:25 -21.09710 -40.92862 28990 ft 441 kts 40°
2026-05-06 01:25 -21.07342 -40.90785 28455 ft 436 kts 40°
2026-05-06 01:25 -21.05021 -40.88750 27903 ft 432 kts 40°
2026-05-06 01:25 -21.02707 -40.86722 27353 ft 429 kts 40°
2026-05-06 01:26 -21.00393 -40.84695 26799 ft 425 kts 40°
2026-05-06 01:26 -20.98137 -40.82718 26257 ft 421 kts 40°
2026-05-06 01:26 -20.95862 -40.80727 25704 ft 417 kts 40°
2026-05-06 01:26 -20.93641 -40.78782 25164 ft 414 kts 40°
2026-05-06 01:27 -20.91412 -40.76832 24618 ft 410 kts 40°
2026-05-06 01:27 -20.89227 -40.74921 24086 ft 406 kts 40°
2026-05-06 01:27 -20.87064 -40.73030 23553 ft 402 kts 40°
2026-05-06 01:27 -20.84905 -40.71143 23022 ft 398 kts 41°
2026-05-06 01:28 -20.82747 -40.69291 22501 ft 395 kts 39°
2026-05-06 01:28 -20.80553 -40.67606 21995 ft 392 kts 33°
2026-05-06 01:28 -20.78138 -40.66192 21463 ft 390 kts 27°
2026-05-06 01:28 -20.75692 -40.65024 20944 ft 387 kts 24°
2026-05-06 01:29 -20.73186 -40.63940 20411 ft 384 kts 22°
2026-05-06 01:29 -20.70716 -40.62908 19889 ft 380 kts 22°
2026-05-06 01:29 -20.68292 -40.61896 19373 ft 376 kts 22°
2026-05-06 01:29 -20.65864 -40.60872 18856 ft 372 kts 23°
2026-05-06 01:30 -20.63451 -40.59842 18342 ft 368 kts 23°
2026-05-06 01:30 -20.61123 -40.58836 17841 ft 364 kts 23°
2026-05-06 01:30 -20.58763 -40.57809 17331 ft 360 kts 23°
2026-05-06 01:30 -20.56461 -40.56800 16838 ft 356 kts 23°
2026-05-06 01:31 -20.54204 -40.55809 16351 ft 353 kts 24°
2026-05-06 01:31 -20.51928 -40.54807 15851 ft 349 kts 23°
2026-05-06 01:31 -20.49688 -40.53822 15357 ft 345 kts 23°
2026-05-06 01:31 -20.47486 -40.52853 14873 ft 342 kts 23°
2026-05-06 01:32 -20.45301 -40.51893 14388 ft 338 kts 23°
2026-05-06 01:32 -20.43152 -40.50950 13921 ft 335 kts 23°
2026-05-06 01:32 -20.40994 -40.50003 13443 ft 332 kts 23°
2026-05-06 01:32 -20.38865 -40.49069 12974 ft 328 kts 23°
2026-05-06 01:33 -20.36759 -40.48146 12506 ft 325 kts 23°
2026-05-06 01:33 -20.34661 -40.47333 12194 ft 318 kts 18°
2026-05-06 01:33 -20.32528 -40.46716 11671 ft 319 kts 14°
2026-05-06 01:33 -20.30347 -40.46189 11218 ft 316 kts 13°
2026-05-06 01:34 -20.28252 -40.45709 11032 ft 304 kts 13°
2026-05-06 01:34 -20.26212 -40.45233 10872 ft 292 kts 14°
2026-05-06 01:34 -20.24256 -40.44763 10683 ft 283 kts 14°
2026-05-06 01:34 -20.22354 -40.44295 10334 ft 281 kts 14°
2026-05-06 01:35 -20.20440 -40.43817 9963 ft 279 kts 14°
2026-05-06 01:35 -20.18561 -40.43348 9593 ft 278 kts 14°
2026-05-06 01:35 -20.16673 -40.42875 9213 ft 277 kts 15°
2026-05-06 01:35 -20.14815 -40.42410 8849 ft 275 kts 14°
2026-05-06 01:36 -20.12938 -40.41942 8466 ft 274 kts 15°
2026-05-06 01:36 -20.11138 -40.41372 8095 ft 272 kts 24°
2026-05-06 01:36 -20.09586 -40.40265 7708 ft 267 kts 50°
2026-05-06 01:36 -20.08694 -40.38557 7339 ft 262 kts 73°
2026-05-06 01:37 -20.08179 -40.36728 7020 ft 258 kts 75°
2026-05-06 01:37 -20.07679 -40.34946 6827 ft 242 kts 74°
2026-05-06 01:37 -20.07191 -40.33299 6605 ft 230 kts 73°
2026-05-06 01:37 -20.06715 -40.31724 6399 ft 216 kts 73°
2026-05-06 01:38 -20.06271 -40.30259 6127 ft 207 kts 74°
2026-05-06 01:38 -20.05829 -40.28796 5619 ft 210 kts 74°
2026-05-06 01:38 -20.05376 -40.27305 5180 ft 208 kts 74°
2026-05-06 01:38 -20.04944 -40.25894 4968 ft 197 kts 74°
2026-05-06 01:39 -20.04529 -40.24537 4807 ft 185 kts 74°
2026-05-06 01:39 -20.04190 -40.23246 4505 ft 183 kts 82°
2026-05-06 01:39 -20.04172 -40.21903 4182 ft 180 kts 99°
2026-05-06 01:39 -20.04475 -40.20635 3933 ft 175 kts 110°
2026-05-06 01:40 -20.04997 -40.19476 3712 ft 174 kts 123°
2026-05-06 01:40 -20.05786 -40.18512 3576 ft 168 kts 136°
2026-05-06 01:40 -20.06702 -40.17779 3529 ft 163 kts 147°
2026-05-06 01:40 -20.07741 -40.17286 3488 ft 167 kts 161°
2026-05-06 01:41 -20.08910 -40.17067 3437 ft 168 kts 173°
2026-05-06 01:41 -20.10070 -40.17116 3408 ft 169 kts 186°
2026-05-06 01:41 -20.11219 -40.17468 3409 ft 173 kts 198°
2026-05-06 01:41 -20.12298 -40.18084 3303 ft 178 kts 212°
2026-05-06 01:42 -20.13203 -40.19000 3093 ft 178 kts 228°
2026-05-06 01:42 -20.13862 -40.20060 2892 ft 169 kts 237°
2026-05-06 01:42 -20.14428 -40.21158 2693 ft 168 kts 238°
2026-05-06 01:42 -20.14975 -40.22217 2484 ft 161 kts 237°
2026-05-06 01:43 -20.15509 -40.23234 2260 ft 154 kts 237°
2026-05-06 01:43 -20.16020 -40.24204 2091 ft 148 kts 237°
2026-05-06 01:43 -20.16516 -40.25161 1825 ft 147 kts 237°
2026-05-06 01:43 -20.17059 -40.26076 1474 ft 145 kts 231°
2026-05-06 01:44 -20.17687 -40.26883 1282 ft 141 kts 224°
2026-05-06 01:44 -20.18396 -40.27599 1192 ft 139 kts 219°
2026-05-06 01:44 -20.19183 -40.28221 1197 ft 140 kts 208°
2026-05-06 01:44 -20.20095 -40.28604 1040 ft 141 kts 192°
2026-05-06 01:45 -20.21070 -40.28687 802 ft 141 kts 174°
2026-05-06 01:45 -20.22043 -40.28523 591 ft 139 kts 171°
2026-05-06 01:45 -20.22998 -40.28395 409 ft 138 kts 172°
2026-05-06 01:45 -20.23952 -40.28239 218 ft 137 kts 172°
2026-05-06 01:46 -20.24890 -40.28102 39 ft 135 kts 173°
2026-05-06 01:46 -20.25828 -40.27971 99 ft 153 kts 173°
2026-05-06 01:46 -20.26809 -40.27823 1216 ft 141 kts 169°
2026-05-06 01:46 -20.27761 -40.27676 2132 ft 143 kts 167°
2026-05-06 01:47 -20.28771 -40.27475 2824 ft 164 kts 165°
2026-05-06 01:47 -20.30015 -40.27199 3365 ft 194 kts 165°
2026-05-06 01:47 -20.31388 -40.26939 3951 ft 217 kts 169°
2026-05-06 01:47 -20.33100 -40.26784 3905 ft 260 kts 174°
2026-05-06 01:48 -20.34830 -40.26506 3540 ft 255 kts 161°
2026-05-06 01:48 -20.36328 -40.25389 3429 ft 279 kts 127°
2026-05-06 01:48 -20.37315 -40.23651 3943 ft 261 kts 113°
2026-05-06 01:48 -20.37837 -40.21913 3975 ft 240 kts 100°
2026-05-06 01:49 -20.37834 -40.20198 3966 ft 225 kts 80°
2026-05-06 01:49 -20.37338 -40.18612 3967 ft 226 kts 68°
2026-05-06 01:49 -20.36536 -40.17186 3966 ft 228 kts 52°
2026-05-06 01:49 -20.35290 -40.16088 3971 ft 231 kts 32°
2026-05-06 01:50 -20.33814 -40.15440 3975 ft 233 kts 18°
2026-05-06 01:50 -20.32192 -40.15175 3977 ft 237 kts
2026-05-06 01:50 -20.30527 -40.15113 3975 ft 237 kts
2026-05-06 01:50 -20.28855 -40.15089 3972 ft 238 kts
2026-05-06 01:51 -20.27005 -40.15047 3973 ft 237 kts
2026-05-06 01:51 -20.25369 -40.14994 3972 ft 238 kts
2026-05-06 01:51 -20.23689 -40.14934 3967 ft 238 kts
2026-05-06 01:51 -20.22027 -40.14877 3962 ft 239 kts
2026-05-06 01:52 -20.20360 -40.14820 3959 ft 238 kts
2026-05-06 01:52 -20.18704 -40.14760 3959 ft 239 kts
2026-05-06 01:52 -20.17031 -40.14698 3956 ft 239 kts
2026-05-06 01:52 -20.15379 -40.14639 3957 ft 238 kts
2026-05-06 01:53 -20.13711 -40.14582 3956 ft 239 kts
2026-05-06 01:53 -20.12028 -40.14525 3957 ft 239 kts
2026-05-06 01:53 -20.10374 -40.14465 3958 ft 239 kts
2026-05-06 01:53 -20.08699 -40.14401 3955 ft 240 kts
2026-05-06 01:54 -20.07032 -40.14339 3955 ft 239 kts
2026-05-06 01:54 -20.05348 -40.14279 3962 ft 240 kts
2026-05-06 01:54 -20.03682 -40.14222 3959 ft 232 kts
2026-05-06 01:54 -20.02134 -40.14404 3949 ft 222 kts 340°
2026-05-06 01:55 -20.01029 -40.15461 3939 ft 209 kts 294°
2026-05-06 01:55 -20.00924 -40.16884 3916 ft 190 kts 246°
2026-05-06 01:55 -20.01741 -40.17844 3779 ft 172 kts 195°
2026-05-06 01:55 -20.02899 -40.17822 3826 ft 165 kts 161°
2026-05-06 01:56 -20.04051 -40.17500 4176 ft 177 kts 163°
2026-05-06 01:56 -20.05264 -40.17207 4244 ft 175 kts 164°
2026-05-06 01:56 -20.06440 -40.16931 4050 ft 175 kts 164°
2026-05-06 01:56 -20.07633 -40.16674 3804 ft 176 kts 169°
2026-05-06 01:57 -20.08878 -40.16661 3542 ft 179 kts 184°
2026-05-06 01:57 -20.10092 -40.16996 3304 ft 180 kts 196°
2026-05-06 01:57 -20.11257 -40.17485 3055 ft 180 kts 199°
2026-05-06 01:57 -20.12368 -40.18109 2807 ft 182 kts 212°
2026-05-06 01:58 -20.13268 -40.19054 2575 ft 184 kts 229°
2026-05-06 01:58 -20.13955 -40.20203 2337 ft 179 kts 237°
2026-05-06 01:58 -20.14538 -40.21346 2030 ft 171 kts 238°
2026-05-06 01:58 -20.15080 -40.22425 1908 ft 161 kts 238°
2026-05-06 01:59 -20.15602 -40.23431 1822 ft 150 kts 237°
2026-05-06 01:59 -20.16120 -40.24412 1701 ft 150 kts 237°
2026-05-06 01:59 -20.16613 -40.25359 1574 ft 144 kts 238°
2026-05-06 01:59 -20.17097 -40.26281 1454 ft 144 kts 237°
2026-05-06 02:00 -20.17681 -40.27134 1332 ft 142 kts 223°
2026-05-06 02:00 -20.18451 -40.27788 1212 ft 140 kts 210°
2026-05-06 02:00 -20.19313 -40.28286 1090 ft 139 kts 201°
2026-05-06 02:00 -20.20236 -40.28575 953 ft 139 kts 188°
2026-05-06 02:01 -20.21194 -40.28647 743 ft 139 kts 176°
2026-05-06 02:01 -20.22162 -40.28519 550 ft 138 kts 169°
2026-05-06 02:01 -20.23119 -40.28357 359 ft 138 kts 172°
2026-05-06 02:01 -20.24061 -40.28220 196 ft 136 kts 172°
2026-05-06 02:02 -20.24997 -40.28086 26 ft 135 kts 173°
2026-05-06 02:02 -20.25870 -40.27962 14 ft 105 kts 172°
2026-05-06 02:02 -20.26337 -40.27890 14 ft 35 kts 171°
2026-05-06 02:02 -20.26503 -40.27865 14 ft 17 kts 172°
2026-05-06 02:03 -20.26593 -40.27886 14 ft 10 kts 237°
2026-05-06 02:03 -20.26614 -40.27962 14 ft 9 kts 263°
2026-05-06 02:03 -20.26592 -40.28018 14 ft 8 kts 334°
2026-05-06 02:03 -20.26530 -40.28034 14 ft 9 kts 351°
2026-05-06 02:04 -20.26461 -40.28043 14 ft 10 kts 352°
2026-05-06 02:04 -20.26388 -40.28054 14 ft 10 kts 351°
2026-05-06 02:04 -20.26310 -40.28068 14 ft 11 kts 350°
2026-05-06 02:04 -20.26228 -40.28083 14 ft 12 kts 351°
2026-05-06 02:05 -20.26141 -40.28094 14 ft 13 kts 353°
2026-05-06 02:05 -20.26048 -40.28107 14 ft 13 kts 352°
2026-05-06 02:05 -20.25960 -40.28123 14 ft 10 kts 330°
2026-05-06 02:05 -20.25929 -40.28196 14 ft 12 kts 282°
2026-05-06 02:06 -20.25908 -40.28290 12 ft 14 kts 283°
2026-05-06 02:06 -20.25885 -40.28402 11 ft 15 kts 283°
2026-05-06 02:06 -20.25862 -40.28503 12 ft 12 kts 289°
2026-05-06 02:06 -20.25822 -40.28580 12 ft 11 kts 302°
2026-05-06 02:07 -20.25777 -40.28657 12 ft 12 kts 302°
2026-05-06 02:07 -20.25729 -40.28735 12 ft 11 kts 303°
2026-05-06 02:07 -20.25708 -40.28786 12 ft 7 kts 268°
2026-05-06 02:07 -20.25742 -40.28827 12 ft 8 kts 212°
2026-05-06 02:08 -20.25788 -40.28854 12 ft 7 kts 209°
2026-05-06 02:08 -20.25817 -40.28876 12 ft 2 kts 250°
2026-05-06 02:08 -20.25812 -40.28899 12 ft 3 kts 295°
2026-05-06 02:08 -20.25803 -40.28916 12 ft 0 kts 301°